GLOBALSTAR M040 [P]

Last updated on Tue May 03 2016 23:39:15 GMT+0000 (Coordinated Universal Time)

1 25622U 99004B 16124.90834109 -.00000069 00000-0 19428-3 0 9990 2 25622 51.9900 114.6984 0000393 232.6795 140.3285 12.61854626794975
UTC large
Height (km)
Speed (km/s)
/
Latitude / Longitude
Inclination (degrees)
Orbital Period (minutes)
Azimuth
Elevation
Range (km)
Doppler Factor

Next 0 passes for location: London (51.5072 / 0.1276)

Sorry there are no passes over London.
GLOBALSTAR M040 [P]